Wind_Speed
7 7 6 5 4 4 4 3 4 4 4 4 4 5 4 4 4 3 3 4 4 5 5 5 5 5 5 6 7 7 5 3 3 2 2 2 5 7 10 12 12 11 10 9 8 5 4 4 4 5 7 7 7 8 9 9 10 7 3 1 4 3 4 5 4 4 3 2 2 2 4 10 7 8 12 10 13 21 22 20 18 17 19 25 30 35 33 29
6 6 5 4 4 3 3 3 4 4 5 5 5 5 5 4 4 4 4 4 5 5 6 5 4 4 5 6 8 7 4 3 4 3 3 4 7 9 12 13 13 12 10 9 8 6 5 5 4 4 4 5 6 6 6 7 9 6 3 2 5 4 5 5 4 5 3 3 5 6 6 11 5 3 5 4 9 16 19 18 23 29 27 31 34 34 32 30
5 5 4 4 3 3 3 3 4 5 5 6 6 6 5 5 5 5 4 4 4 4 4 4 4 5 6 6 8 8 4 3 3 3 4 5 9 11 13 13 13 11 10 9 7 6 6 6 5 4 4 4 6 6 5 4 7 7 4 2 6 6 4 4 5 5 4 6 9 10 10 13 9 4 6 9 11 13 11 10 19 28 29 33 33 32 32 31
4 4 4 3 3 3 4 4 5 5 6 6 6 6 6 6 6 6 5 5 5 5 5 5 5 5 6 6 7 7 4 2 2 4 6 8 10 12 13 12 12 11 9 8 6 5 5 4 3 3 4 4 5 5 5 5 6 4 5 5 6 5 3 5 4 6 5 6 11 12 12 14 14 12 10 12 11 8 5 7 16 27 31 33 32 32 31 30
4 4 4 4 4 4 5 5 6 6 7 7 7 7 7 7 7 6 6 6 6 6 6 6 6 6 5 5 7 7 4 2 2 6 9 10 11 12 12 12 11 11 9 7 5 3 3 2 1 2 3 3 2 2 4 7 8 3 5 11 9 6 3 6 8 7 5 8 11 11 10 9 13 19 15 13 9 4 3 9 21 28 31 32 32 32 30 30
5 5 5 5 5 6 6 7 7 7 7 8 8 8 8 7 7 7 7 6 6 6 7 6 6 6 5 5 6 6 3 2 4 8 11 11 12 12 11 11 10 10 8 6 5 3 3 2 2 2 2 3 1 3 5 6 7 4 5 9 11 10 5 6 10 6 7 10 10 10 12 15 18 19 22 24 15 7 10 17 24 25 28 30 31 30 30 30
6 6 6 7 7 7 7 8 8 8 8 9 10 9 8 8 8 8 8 7 7 7 7 6 6 6 5 5 6 5 4 4 6 10 11 13 14 13 11 11 10 8 7 5 5 4 3 2 2 2 1 1 1 2 6 8 4 6 5 4 7 9 6 7 8 7 8 12 13 17 17 14 15 13 19 25 19 18 21 21 24 24 26 27 28 28 27 28
7 7 7 8 8 8 8 8 8 9 9 10 10 10 9 8 9 9 8 8 7 7 7 6 6 6 5 6 5 3 5 5 9 11 13 14 14 13 12 11 9 7 5 4 4 2 2 2 2 3 2 0 1 2 6 8 2 4 4 3 2 1 4 8 9 10 15 20 22 24 21 18 22 22 20 18 18 24 25 24 25 25 25 26 26 26 26 27
7 7 7 7 7 7 7 8 8 9 9 10 10 9 8 8 8 9 8 7 7 6 6 6 6 5 5 6 4 3 5 8 11 13 14 14 14 12 12 12 9 7 3 3 3 2 1 2 2 3 1 2 2 3 5 4 1 1 2 4 1 5 7 11 11 15 21 24 25 23 18 18 21 20 17 14 19 24 26 28 26 26 27 27 27 27 27 28
7 7 7 6 6 6 6 7 7 8 8 9 9 9 8 8 8 9 8 6 6 5 5 5 4 4 4 4 4 3 4 10 12 12 12 12 12 10 10 10 10 7 3 2 3 3 0 1 3 4 4 3 2 4 4 2 1 4 3 5 2 4 6 10 10 17 22 17 21 20 10 9 9 6 7 11 20 24 27 28 25 27 28 28 28 27 28 28
6 6 6 6 6 5 5 5 6 7 7 8 9 9 9 8 8 9 8 5 4 4 4 3 2 3 2 4 7 5 6 12 12 10 11 11 12 10 9 8 8 5 2 1 3 4 1 1 4 5 4 2 2 6 4 0 4 6 3 6 6 4 2 5 8 18 17 8 19 26 11 11 11 6 8 14 20 23 27 28 25 28 27 27 27 26 27 27
5 5 5 5 4 4 4 4 5 6 7 8 8 9 9 8 9 9 7 5 5 4 3 2 1 1 3 5 8 7 10 13 11 11 13 13 13 11 9 8 6 4 2 1 1 4 4 4 4 4 2 1 3 4 3 5 9 6 2 3 7 8 5 4 2 15 8 7 23 25 10 9 9 7 13 18 21 23 26 27 25 26 25 25 25 24 25 24
5 4 4 3 4 3 3 3 5 5 7 8 8 10 9 9 9 8 6 6 5 3 1 0 2 3 4 4 8 10 13 12 10 14 16 16 14 9 8 8 5 4 3 2 1 3 4 5 4 2 2 2 2 2 5 9 8 5 3 1 4 8 4 8 3 9 3 12 22 12 2 2 5 9 16 18 20 23 25 24 23 24 23 23 23 23 22 21
4 3 3 2 3 3 3 4 4 5 7 8 9 10 9 9 9 7 7 5 2 2 2 4 6 5 4 4 7 12 13 9 9 16 19 18 14 7 6 7 5 4 4 3 3 2 2 3 3 2 2 2 3 4 7 7 4 2 3 3 3 3 4 9 3 6 5 9 13 1 1 4 3 8 14 17 18 20 23 22 21 22 22 22 21 22 21 19
4 3 2 2 2 3 3 4 5 6 7 8 8 10 8 8 9 7 5 4 3 4 3 5 8 6 6 5 6 11 12 8 9 17 22 22 15 9 6 6 5 5 5 5 5 3 1 1 1 3 2 3 3 4 4 4 4 3 2 3 3 1 4 8 3 4 4 6 2 4 3 3 4 9 13 16 16 18 23 21 20 21 20 21 20 20 20 19
4 3 2 2 2 3 4 5 6 6 7 7 7 8 7 7 8 5 6 8 6 4 3 5 7 7 6 5 7 10 12 12 12 17 24 22 14 9 8 7 5 5 5 5 6 4 2 3 4 6 6 3 3 3 4 4 4 3 2 2 3 1 3 4 3 8 6 4 6 5 5 3 4 11 13 15 17 20 23 20 19 19 18 19 19 19 19 19
3 3 2 3 3 4 5 6 7 6 6 5 6 6 4 7 8 3 6 11 12 10 8 5 4 3 5 8 11 12 15 15 14 19 21 17 10 7 8 6 4 4 4 5 5 4 3 4 3 3 6 5 3 4 4 4 3 4 3 1 2 2 2 3 3 8 11 5 5 7 6 5 5 12 14 14 18 21 23 20 18 18 17 18 18 18 18 18
3 3 4 4 4 5 5 7 7 6 5 4 4 3 3 8 10 5 4 7 9 9 9 8 3 2 2 12 14 12 15 16 16 19 17 10 7 7 7 5 5 4 4 4 4 4 3 4 3 1 5 6 4 6 4 1 2 3 3 2 3 3 1 3 4 3 9 8 6 8 8 7 7 10 13 14 17 21 21 19 18 17 17 17 17 18 17 17
4 5 5 5 5 6 6 7 7 6 5 3 3 1 4 8 13 12 8 7 7 7 4 9 9 3 2 11 13 9 11 17 21 21 16 10 6 7 8 5 6 9 6 3 3 4 4 4 5 4 5 5 4 3 1 4 4 4 4 3 3 3 4 5 3 1 7 10 7 6 8 8 7 7 10 14 16 20 20 18 18 17 16 16 16 16 16 17
5 5 5 6 6 6 6 6 6 5 3 2 1 2 5 7 9 11 14 17 17 15 10 11 12 7 3 8 12 10 9 16 25 24 19 15 6 5 10 7 6 12 9 2 1 3 5 6 5 3 4 5 6 4 4 4 2 2 1 1 3 2 4 5 0 1 5 8 6 5 9 7 6 5 9 15 16 18 18 16 17 16 16 17 16 16 16 16
6 6 6 6 6 6 6 5 5 3 2 0 1 2 5 6 5 6 12 17 15 13 13 15 14 11 9 9 12 12 11 16 26 28 22 18 10 5 10 9 5 8 8 4 0 3 7 7 4 5 6 3 3 4 1 2 3 2 1 0 3 2 4 4 2 2 4 7 3 5 10 6 4 4 8 15 14 13 17 17 17 17 17 16 17 17 17 17
5 6 6 6 6 6 6 4 3 2 2 2 2 2 3 7 11 11 12 11 10 10 10 12 15 14 13 12 11 13 17 19 24 31 26 19 15 9 9 10 6 4 7 5 3 4 7 4 5 7 4 2 5 5 6 6 5 4 2 1 2 1 3 4 2 5 7 5 3 4 8 5 3 4 6 9 9 10 16 18 18 19 18 18 18 18 19 19
6 6 6 6 6 6 6 3 2 3 2 2 2 3 6 11 14 13 13 10 8 9 10 11 15 17 15 13 11 11 18 18 16 27 30 20 15 13 9 8 5 3 7 6 5 4 4 2 7 7 3 6 6 7 8 7 4 3 3 3 1 4 2 2 3 5 7 4 6 6 7 3 2 4 4 3 8 11 12 15 17 18 17 18 19 19 20 21
6 6 6 7 6 6 5 2 1 3 1 2 2 4 8 13 15 14 11 8 5 6 9 11 13 16 15 15 14 8 13 17 15 23 29 21 12 9 7 5 5 5 5 4 8 8 3 6 8 6 6 7 5 7 9 6 6 3 0 3 0 4 1 2 3 2 5 6 6 8 5 1 0 2 2 3 7 10 11 14 15 15 15 16 18 19 20 22
7 7 7 7 6 6 5 2 2 3 1 2 3 5 9 13 15 12 7 5 3 4 8 8 10 14 14 17 15 4 7 14 18 23 25 19 13 6 4 6 5 4 3 3 8 7 2 7 7 6 7 8 6 5 6 3 4 5 2 2 1 3 4 4 3 1 3 3 2 5 1 2 1 1 3 2 4 5 9 13 14 14 15 16 18 19 20 21
7 7 7 6 6 6 5 2 3 3 1 3 3 6 9 13 15 12 4 4 3 6 7 6 7 11 14 18 16 3 5 8 13 23 24 16 14 8 3 6 4 3 1 3 5 3 2 7 7 6 6 8 7 3 2 3 4 4 2 1 1 2 4 5 2 1 1 2 5 6 3 3 1 2 4 3 3 4 6 9 13 15 17 18 19 20 21 22
7 7 7 6 6 6 4 2 3 3 2 3 3 6 8 11 15 12 2 6 3 4 5 6 6 9 13 16 14 5 2 7 7 20 27 15 11 14 8 4 3 3 3 2 4 1 2 8 8 7 7 7 7 4 3 2 3 3 3 2 5 6 6 5 2 2 3 1 1 3 3 2 2 2 3 3 3 3 5 6 10 16 18 19 20 21 22 23
7 7 7 7 7 6 4 2 2 2 2 2 2 5 7 11 15 10 4 5 3 4 3 5 4 8 12 11 13 9 3 7 5 13 26 17 8 14 13 6 1 2 6 4 3 1 1 5 6 5 7 6 3 5 4 1 1 5 6 5 6 6 4 2 3 3 2 1 3 3 2 1 3 1 1 2 3 5 7 7 9 15 19 20 21 21 22 22
7 7 8 8 7 5 4 3 3 3 2 2 3 5 9 13 13 5 6 3 3 3 2 6 5 9 14 11 14 14 8 9 6 8 23 23 13 9 8 8 4 2 9 9 5 1 1 2 1 3 5 3 3 6 3 3 1 6 6 5 3 2 2 2 4 2 2 4 2 5 2 2 3 1 2 2 4 6 7 6 9 16 21 22 22 22 21 21
7 8 9 9 7 5 4 4 3 3 2 3 6 9 13 13 7 4 5 1 2 3 4 6 4 8 14 9 9 14 8 8 7 8 20 26 25 19 7 7 11 4 6 9 5 2 2 1 1 3 3 3 4 5 1 3 3 6 5 5 4 5 4 3 2 3 5 3 3 5 2 4 1 1 4 4 3 4 4 5 8 15 20 23 24 23 22 22
7 8 10 9 7 6 5 4 3 2 2 4 10 14 14 7 4 6 3 1 1 4 5 5 4 7 10 5 5 10 6 7 9 8 12 15 22 25 12 6 10 6 4 7 6 6 5 3 2 2 3 5 2 3 3 1 3 5 4 4 4 4 4 4 5 4 5 2 6 2 1 3 2 2 4 3 2 2 4 6 8 13 20 24 25 25 24 24
7 9 10 9 8 7 6 4 3 2 3 6 13 14 9 3 5 3 1 3 2 3 3 2 3 5 5 4 5 6 4 5 8 6 5 5 7 12 10 4 4 5 5 5 4 6 4 2 5 4 3 7 5 3 5 5 6 6 4 5 4 3 5 4 4 2 2 4 6 2 4 1 3 2 3 3 4 4 5 8 13 18 23 26 27 26 25 25
7 8 9 9 8 8 7 4 3 3 4 8 13 9 5 5 2 1 3 3 1 2 2 2 4 3 3 5 5 5 3 3 7 6 3 3 4 4 5 6 5 3 2 2 3 5 3 4 7 4 3 7 6 3 4 4 5 5 3 3 4 2 4 3 3 2 2 5 6 4 2 1 3 2 3 4 4 6 8 11 18 22 23 25 26 27 26 26
6 9 9 8 8 8 8 5 4 4 5 9 10 4 7 5 1 1 2 2 2 3 2 1 4 5 4 4 3 4 3 2 3 6 4 4 5 4 4 7 8 4 2 2 2 2 2 3 5 3 3 6 4 2 0 1 2 3 2 5 4 3 3 0 2 1 3 5 6 5 2 2 2 1 4 5 5 5 8 10 17 21 22 22 24 26 27 27
7 8 9 9 9 8 9 6 3 5 7 9 8 6 6 2 2 0 1 4 2 3 4 3 3 5 4 3 3 3 2 2 2 5 5 4 3 3 3 4 7 4 2 3 1 1 2 3 4 3 3 2 3 2 0 3 1 3 2 4 2 2 4 2 3 4 2 3 4 3 0 3 2 1 4 5 5 4 5 7 13 19 21 21 23 26 28 28
8 9 11 11 9 8 9 7 3 4 8 9 9 6 3 2 2 2 1 2 1 2 4 5 5 5 4 4 4 5 3 2 3 4 3 3 2 2 2 2 4 5 2 3 0 1 2 2 5 4 4 1 2 3 2 3 1 2 3 2 3 3 5 3 2 2 3 2 3 1 1 4 2 2 4 3 4 5 4 5 11 17 19 22 25 27 28 29
8 11 14 15 14 10 7 8 6 5 8 10 9 3 2 1 2 3 1 2 1 0 3 3 2 3 3 3 3 6 6 4 4 4 2 1 2 3 4 3 2 4 2 2 1 1 2 2 5 3 3 3 2 2 4 5 3 3 3 3 3 1 3 4 1 4 4 2 3 1 2 4 2 2 3 2 5 6 5 6 10 14 18 22 27 28 29 29
7 10 14 17 18 13 6 6 5 7 13 13 7 3 2 1 1 2 2 2 1 1 5 2 1 1 1 1 3 5 5 4 4 3 2 2 2 1 2 3 2 5 5 0 1 0 2 1 6 2 2 5 4 2 3 7 6 5 2 2 2 3 1 2 2 2 2 2 4 4 4 3 3 3 3 5 7 7 7 7 8 13 18 24 28 29 29 29
3 6 12 15 14 14 10 4 4 10 15 10 3 2 2 1 0 1 2 2 0 3 4 1 1 2 1 1 1 4 3 2 2 2 3 2 2 1 3 1 3 8 9 2 2 1 1 2 3 5 3 4 5 4 0 4 5 4 3 3 2 3 3 1 1 1 1 1 2 4 5 3 5 5 5 8 9 8 8 7 9 16 23 27 29 29 29 29
2 3 9 11 7 9 8 4 9 14 12 4 3 2 1 1 1 2 2 1 1 3 2 1 1 1 2 1 0 2 2 2 2 2 2 1 1 1 2 0 2 7 9 4 3 1 1 2 2 5 5 3 2 1 2 2 2 2 4 4 3 2 0 1 1 1 2 2 2 1 4 5 5 4 6 9 9 9 11 10 12 21 27 29 30 29 28 28
4 3 6 10 6 4 3 8 12 12 6 2 3 2 1 2 2 2 3 2 2 3 2 2 2 1 0 1 1 1 1 3 2 2 1 1 2 0 1 1 1 4 5 4 3 2 1 1 1 3 4 2 2 4 3 3 4 2 2 2 2 1 2 3 2 3 1 2 4 2 3 8 5 3 6 7 7 10 15 15 16 22 27 28 29 28 27 27
6 3 5 10 7 2 8 11 9 6 4 4 4 3 2 3 2 2 3 3 2 3 3 2 2 1 2 1 1 1 1 2 2 2 1 0 1 1 2 3 3 2 1 1 2 1 1 2 1 2 3 4 5 4 1 2 2 3 2 2 4 2 4 5 2 4 1 1 1 3 2 7 5 4 6 8 9 14 18 19 20 24 26 26 26 26 26 27
11 7 6 7 5 6 11 9 6 5 5 3 3 5 3 2 2 2 3 3 2 2 3 2 1 1 0 1 0 0 1 1 0 1 1 1 2 3 2 3 3 1 1 1 1 1 1 2 2 3 4 4 6 4 1 1 3 2 1 1 2 1 3 5 5 3 1 3 1 2 2 7 6 4 7 10 11 14 16 18 20 24 25 23 23 23 23 24
19 17 13 8 2 3 6 5 2 2 2 2 4 5 4 3 4 3 2 3 2 1 2 1 0 1 1 1 2 1 1 1 1 1 1 2 2 3 3 1 2 1 1 0 0 1 1 1 2 2 5 6 7 6 4 4 2 0 2 0 1 3 6 3 2 3 1 4 4 3 4 7 4 3 5 8 10 12 16 19 20 22 23 22 21 20 20 21
13 15 19 16 9 8 9 10 9 5 3 4 5 2 2 4 4 3 2 2 3 2 2 1 1 1 1 1 2 2 1 1 0 0 1 0 2 3 2 2 2 1 1 1 1 0 1 2 3 3 2 3 4 4 3 3 3 1 1 2 2 4 6 3 1 3 2 4 4 5 5 7 6 4 5 7 7 9 16 21 22 23 25 24 23 22 21 22
5 4 10 15 18 19 16 13 13 9 4 5 4 2 2 2 1 2 3 3 4 3 2 2 1 0 3 4 3 2 2 1 1 1 1 1 3 3 2 3 3 3 3 2 1 1 2 1 2 5 5 4 5 7 5 1 2 4 4 4 4 3 5 5 4 3 4 3 3 6 7 9 11 9 7 8 7 8 13 19 23 26 27 28 27 25 25 25
5 2 1 5 10 15 13 9 9 7 5 5 3 1 2 1 1 2 2 1 3 2 2 2 2 1 2 3 2 1 2 2 2 1 1 2 3 3 3 3 3 3 3 1 1 2 3 1 2 4 6 7 8 9 6 1 3 6 6 6 6 5 5 7 5 6 5 4 4 9 6 6 12 12 9 9 8 7 11 18 23 25 27 28 28 26 25 26
4 3 3 4 2 3 5 5 8 9 5 4 3 1 2 2 1 1 0 1 2 2 1 1 3 2 1 1 2 0 2 3 1 1 1 2 3 3 3 3 2 2 1 0 1 2 4 1 3 3 5 9 8 9 8 4 5 6 6 8 7 7 8 9 9 8 7 5 8 8 5 8 13 13 11 11 11 12 17 22 24 24 24 25 25 25 26 26
11 8 6 6 5 5 6 6 10 12 7 4 3 2 2 3 1 1 1 1 2 2 2 0 3 4 3 2 3 2 1 1 1 3 2 1 2 2 2 2 2 1 1 0 1 2 3 2 3 2 5 9 9 9 6 5 4 6 7 10 9 9 11 12 9 7 8 9 11 10 11 13 14 13 12 16 19 20 22 23 22 21 22 22 24 26 26 26
10 8 10 14 12 9 8 5 7 8 5 4 4 1 2 4 3 2 1 2 0 2 2 1 4 5 3 2 4 2 4 5 4 4 4 3 1 1 2 2 2 1 3 1 0 2 1 2 2 2 3 8 8 6 3 3 5 8 10 9 7 7 8 8 7 5 6 9 11 10 11 12 12 12 13 17 20 18 18 21 22 23 24 24 25 26 25 25
12 14 19 20 10 4 4 3 3 5 3 3 2 2 1 3 4 3 1 1 2 1 1 2 3 3 1 2 4 4 5 5 6 6 6 5 3 3 3 2 2 1 3 1 0 1 1 2 2 5 3 7 5 4 6 7 6 8 12 10 7 7 6 5 5 6 7 8 8 8 8 9 8 8 9 14 17 16 17 21 24 26 26 26 26 26 25 26
20 19 16 14 6 3 3 3 3 4 2 1 2 3 2 2 5 5 2 1 2 2 1 2 3 1 1 1 4 4 5 5 7 8 7 8 8 7 6 5 4 3 1 2 0 1 2 2 1 2 1 6 5 4 5 6 6 6 8 7 8 8 6 6 6 6 8 8 6 6 8 7 7 7 8 12 14 15 19 23 25 26 25 24 25 25 26 28
Wind_Direction
88 84 79 75 68 64 57 48 37 27 24 17 9 360 350 341 333 321 304 283 274 274 283 299 308 310 315 328 345 346 325 253 214 264 293 302 326 336 335 337 340 336 335 324 308 289 228 208 224 234 239 230 237 245 230 226 218 208 156 166 244 202 193 199 195 199 169 185 177 192 157 132 111 106 111 97 78 79 81 79 92 107 119 138 142 146 153 154
84 77 73 69 60 50 38 29 25 22 23 17 10 2 351 344 336 328 318 301 289 284 286 296 305 308 318 332 347 355 340 258 245 283 313 329 330 332 335 336 337 337 334 323 311 297 254 244 267 266 265 245 240 238 222 219 206 196 120 161 236 198 202 215 214 196 157 184 134 80 104 114 94 118 127 93 57 73 80 77 99 105 111 130 139 145 150 153
75 67 63 58 49 42 32 25 24 21 18 11 4 356 349 344 341 337 332 325 314 303 302 305 312 314 320 333 349 356 339 269 270 310 314 314 322 325 328 330 330 333 330 323 320 309 283 280 289 281 293 281 257 242 226 207 199 203 151 191 242 210 223 263 251 196 159 177 130 87 89 77 51 95 122 113 80 64 81 95 107 110 119 130 138 146 150 153
65 57 52 47 41 36 29 27 23 16 11 6 359 354 351 346 344 342 337 333 325 315 314 321 321 319 322 331 350 354 343 303 304 340 332 318 320 320 322 325 326 327 323 318 319 312 293 294 298 285 292 281 260 245 235 219 209 199 163 207 234 185 215 253 213 149 145 172 135 110 98 72 57 81 104 116 93 49 66 120 126 126 130 133 139 145 150 152
69 64 60 54 49 42 38 35 27 23 17 11 6 0 355 349 343 337 331 326 322 318 321 332 330 326 327 331 347 348 347 355 342 355 348 333 326 321 320 323 323 324 322 311 303 301 286 284 321 301 259 244 247 235 243 223 204 195 208 229 233 174 178 218 176 136 141 152 132 110 94 92 78 66 66 86 85 28 54 124 131 131 134 136 140 144 148 150
76 70 65 56 53 49 45 41 34 29 22 17 12 4 358 353 345 334 323 315 315 318 323 328 331 335 332 332 347 346 11 49 352 357 350 337 331 324 318 319 322 321 324 312 290 273 263 285 325 318 240 240 224 208 263 260 216 225 249 249 250 228 216 201 170 143 155 138 118 108 104 108 93 64 60 70 65 70 112 135 134 131 136 140 143 146 149 148
68 61 58 54 52 50 45 42 36 29 22 17 11 5 2 357 350 342 332 323 315 313 318 321 326 338 335 336 347 357 66 69 1 353 343 342 338 329 323 322 321 316 320 305 273 254 267 307 332 345 7 309 320 238 293 309 247 217 251 288 276 249 227 194 158 135 140 119 110 116 110 94 89 83 69 67 69 93 117 135 134 133 137 142 144 144 145 146
62 59 56 52 50 48 45 40 33 27 20 15 10 7 6 1 355 348 341 335 322 313 313 312 322 334 334 341 353 26 57 25 354 343 334 339 337 330 329 327 316 304 308 285 261 247 281 10 13 3 39 194 343 318 332 339 305 193 234 294 348 113 166 167 140 125 114 110 116 109 93 83 92 96 75 66 83 98 117 128 127 132 133 134 134 133 139 140
56 54 50 46 45 47 46 40 33 26 18 15 11 6 1 357 355 347 341 333 324 319 311 310 321 331 334 345 8 49 33 1 348 339 333 334 330 330 328 324 319 307 299 259 263 268 290 36 3 355 344 272 293 316 349 4 312 213 233 293 354 104 140 151 132 126 118 116 118 102 91 96 97 91 71 73 95 105 121 121 123 130 124 121 122 124 131 134
49 45 43 39 40 45 44 38 32 24 17 15 9 3 354 347 349 347 343 331 323 318 304 307 315 327 342 3 45 65 14 359 351 341 343 338 331 333 329 323 319 315 312 258 253 243 136 40 324 333 309 289 279 307 340 125 265 305 286 298 293 103 147 165 146 132 126 126 124 113 105 83 78 95 88 99 106 118 123 113 119 125 117 116 119 121 126 130
40 36 33 29 30 36 34 31 25 18 12 8 4 358 349 343 345 344 341 334 334 321 295 300 318 340 13 66 74 73 4 355 354 355 1 355 344 336 330 326 313 311 329 295 249 241 249 311 306 320 295 268 294 305 319 182 318 313 315 312 303 19 77 159 154 150 132 125 132 122 103 46 45 82 119 125 118 126 122 108 113 116 113 116 119 122 125 129
27 25 22 20 20 20 20 16 11 7 1 359 357 350 345 343 342 341 337 324 325 319 295 301 339 48 117 82 59 41 358 355 2 9 6 1 359 343 326 321 307 318 353 347 252 253 268 281 293 309 277 262 314 320 329 323 324 307 349 323 306 4 26 20 133 175 150 142 143 123 98 23 28 92 123 127 123 126 118 106 108 109 112 116 118 122 123 126
5 6 9 9 8 4 2 358 353 352 349 348 348 347 343 343 345 345 340 320 311 310 296 43 90 111 129 80 41 13 356 3 13 10 3 358 3 353 323 315 310 338 6 12 347 283 275 276 282 294 292 297 291 322 315 318 327 297 344 32 311 6 352 339 356 184 125 150 156 127 117 357 42 123 131 130 132 127 111 103 108 108 113 116 118 122 120 126
341 337 341 352 1 359 351 344 339 336 338 340 345 345 341 350 357 351 348 334 306 139 120 108 106 99 105 80 28 4 0 11 11 4 360 355 1 8 335 330 342 14 33 42 36 358 279 265 288 315 320 317 298 319 323 334 1 298 335 20 358 15 283 320 5 138 79 163 174 65 219 184 147 148 139 138 143 133 110 104 112 112 115 118 120 123 122 127
330 326 323 335 349 349 345 337 333 334 338 340 342 342 344 2 5 3 32 62 110 128 125 121 117 99 88 71 8 359 5 10 4 0 354 350 356 12 13 13 29 52 55 45 42 31 308 258 7 19 14 346 344 357 348 347 7 23 17 328 348 53 269 308 342 78 86 173 167 39 149 159 158 157 147 144 147 137 117 110 116 116 118 120 122 125 125 129
332 337 337 335 336 336 336 332 335 339 341 341 341 343 350 11 15 35 79 78 89 108 120 137 134 108 82 40 358 3 10 5 358 354 348 347 352 7 24 34 46 64 62 44 38 34 24 49 61 51 45 31 32 60 38 9 347 7 72 258 291 318 307 305 336 23 57 128 28 35 149 137 149 152 147 144 143 135 121 117 120 120 124 125 127 130 130 134
345 2 5 356 343 334 335 334 337 341 340 339 339 343 9 31 30 63 94 80 83 87 87 109 160 145 63 19 5 5 7 5 354 350 349 350 355 10 27 31 45 59 51 44 37 44 49 45 79 65 46 47 43 69 51 10 328 329 26 27 285 252 316 301 284 16 34 71 44 42 100 113 130 136 135 139 141 133 124 124 127 127 131 133 134 136 137 140
8 17 14 5 354 344 340 331 330 334 334 328 326 339 80 59 49 68 113 103 91 83 72 50 33 182 34 7 2 357 7 14 5 0 2 2 12 24 22 26 44 40 29 42 45 55 45 26 70 75 23 26 17 59 70 283 234 288 314 319 312 312 318 285 259 338 32 55 69 68 88 106 110 120 124 130 137 131 127 131 133 135 137 138 141 141 144 148
7 11 7 359 351 341 334 325 321 320 320 309 304 306 134 90 70 72 88 100 83 78 60 27 37 103 288 347 1 9 18 25 20 15 17 20 32 30 26 48 54 38 33 38 26 33 36 28 51 37 357 348 342 48 137 224 191 233 266 231 262 306 280 266 277 329 79 71 42 67 104 117 112 114 120 126 133 129 130 135 136 139 140 142 146 148 152 154
356 358 350 343 336 329 327 321 315 312 316 302 253 173 154 123 80 69 76 81 79 83 74 48 48 52 15 357 14 25 23 27 26 24 24 22 31 40 36 54 57 39 31 343 297 18 52 60 42 349 289 289 305 305 246 217 188 245 244 232 255 231 275 286 356 333 91 82 18 60 101 105 115 121 124 130 132 130 133 137 138 143 147 150 153 155 158 158
350 343 334 332 328 327 331 325 323 322 325 25 155 168 176 160 128 102 87 81 81 82 66 52 49 44 41 25 21 22 19 26 28 28 28 23 36 54 34 39 50 31 359 318 164 51 59 63 3 296 256 261 332 338 359 93 57 17 117 255 300 204 253 296 123 316 18 81 53 83 93 75 85 103 126 134 134 142 148 145 147 153 155 159 160 161 163 162
341 334 330 332 329 330 335 333 341 346 10 60 125 162 167 151 140 123 104 94 82 73 56 47 47 43 41 31 25 23 21 22 22 23 23 26 42 48 32 41 54 12 339 357 65 32 45 54 315 298 267 94 42 29 59 63 58 43 34 87 356 295 269 309 37 27 21 87 141 114 95 68 41 76 115 143 150 159 161 160 163 165 164 168 170 169 169 167
337 336 336 337 338 339 341 348 11 6 27 81 135 148 135 138 138 121 109 108 87 61 47 43 39 34 33 27 21 29 34 30 12 11 13 18 36 39 36 47 53 11 354 31 81 60 51 333 305 322 8 81 45 15 43 42 34 37 17 63 321 318 33 320 340 35 31 65 138 123 93 67 32 61 69 131 152 155 165 171 173 176 179 182 182 181 178 175
345 349 350 351 354 348 350 10 12 9 83 147 130 147 148 147 146 134 116 106 94 55 38 36 29 25 25 15 8 30 52 40 21 8 9 15 27 31 35 37 48 36 7 59 89 92 102 304 320 8 46 79 70 21 33 31 2 339 270 112 346 313 323 244 294 59 48 39 113 117 80 8 98 97 71 85 128 140 158 168 174 185 191 191 189 188 188 184
355 359 360 0 2 355 357 355 334 2 93 136 130 156 159 158 157 149 126 92 72 9 15 24 19 19 15 6 5 55 88 43 31 14 8 20 29 23 26 25 42 33 356 94 82 81 72 332 352 44 42 52 74 42 28 36 3 333 259 155 188 289 278 276 321 13 60 9 211 149 90 279 329 145 190 131 114 137 163 170 176 187 190 192 193 193 195 193
1 4 5 4 359 351 346 320 326 351 78 121 139 160 165 172 172 165 135 70 29 332 355 7 4 12 10 3 4 77 112 31 29 18 12 23 30 34 30 6 37 37 329 111 79 77 29 7 38 75 53 44 54 43 5 76 52 345 288 242 286 275 286 284 308 328 159 263 228 184 194 263 314 264 224 179 150 172 187 186 185 189 192 197 199 199 200 198
4 3 2 1 354 348 346 328 333 358 84 110 133 157 169 178 175 174 124 43 5 316 350 354 355 10 9 6 11 75 105 337 3 19 20 26 33 52 64 356 28 15 316 112 62 26 356 9 30 49 44 43 37 2 309 87 71 303 261 317 318 307 299 282 232 198 213 249 265 191 210 286 289 253 219 172 170 199 216 213 199 195 197 201 204 205 204 203
5 1 358 358 355 354 7 15 348 16 69 98 123 153 167 166 169 170 89 66 341 332 355 344 354 9 11 26 37 68 85 353 5 19 25 37 39 52 59 31 68 349 357 84 119 304 15 19 16 38 40 34 12 322 296 110 100 266 263 295 304 293 291 274 146 179 220 41 354 280 237 292 282 276 96 158 197 236 225 216 211 202 202 206 207 209 211 211
3 359 355 355 356 359 16 23 11 25 51 92 108 141 152 150 159 141 66 109 316 351 348 348 352 349 3 33 39 40 51 33 41 20 29 42 43 52 69 32 45 80 25 62 128 257 36 28 354 83 54 3 306 308 296 136 260 283 290 310 332 42 21 64 112 128 49 56 338 286 224 187 269 238 149 193 221 243 227 210 213 208 207 209 211 213 216 217
360 358 356 356 356 358 7 13 14 29 53 102 118 130 134 134 131 71 44 170 330 350 320 351 352 339 2 24 16 14 30 38 40 31 31 40 42 49 76 21 24 69 34 37 67 1 318 283 349 78 44 296 277 315 311 157 284 316 354 350 8 37 32 44 69 87 58 27 273 273 212 176 262 240 180 188 208 224 214 203 209 211 212 212 214 216 216 219
360 357 354 356 357 360 10 15 17 39 67 122 140 135 131 119 71 86 81 270 322 347 343 355 346 352 15 43 6 356 3 17 24 36 29 30 36 38 43 9 8 31 25 16 20 350 353 27 349 328 335 325 332 356 1 47 348 13 41 17 11 2 5 17 358 38 60 316 256 291 354 183 213 257 191 198 245 220 210 207 199 206 213 214 215 218 220 224
7 360 357 2 6 8 17 16 20 62 90 130 150 150 137 60 26 92 279 318 332 343 350 318 324 356 6 27 16 348 340 4 14 43 41 23 39 38 41 33 355 14 16 6 2 350 1 6 319 307 345 9 30 24 354 356 11 27 35 39 50 9 3 17 343 8 58 262 253 338 5 229 227 255 198 213 255 261 251 228 207 205 210 213 216 219 222 226
9 8 11 16 23 23 24 27 53 94 122 138 151 153 98 71 52 257 291 331 7 327 332 287 316 347 3 25 7 334 356 8 0 22 36 51 62 39 35 30 13 33 31 4 12 3 344 313 340 1 2 13 47 70 360 340 354 11 34 67 78 77 33 351 304 344 319 271 280 324 12 250 291 290 203 219 252 277 281 244 218 213 212 215 219 220 224 227
24 27 30 31 34 29 25 34 73 106 138 142 141 107 61 78 198 295 319 282 293 339 355 325 325 348 30 51 346 329 22 3 360 32 15 25 45 13 5 9 8 35 94 53 45 47 38 319 348 19 319 350 36 102 62 246 314 323 157 112 98 131 112 255 230 234 282 281 298 330 28 196 269 268 216 242 264 286 289 248 220 218 219 220 221 221 223 227
40 38 40 38 33 27 24 28 72 106 137 136 102 63 77 121 238 166 286 269 296 328 322 345 23 27 14 351 334 5 44 332 24 65 29 29 55 1 350 350 354 15 77 60 359 101 98 256 276 293 281 341 18 309 346 110 339 306 123 84 39 174 146 151 202 206 241 294 296 320 314 208 212 244 246 263 275 273 275 238 210 213 217 216 218 220 222 227
57 49 45 36 27 26 20 12 43 122 146 128 77 54 120 182 220 165 211 290 349 316 324 354 33 43 352 317 339 359 7 354 29 58 37 53 77 9 340 312 354 19 71 105 20 354 71 277 290 335 333 50 55 318 5 72 322 333 45 15 282 195 134 116 291 302 52 33 289 287 280 283 328 303 265 290 293 271 260 227 206 208 211 212 217 222 225 230
67 55 46 35 29 28 21 21 39 139 138 100 77 88 182 186 180 187 274 324 276 323 62 34 10 26 349 318 324 334 347 3 17 40 47 44 40 11 342 316 17 32 21 135 156 181 124 291 304 353 350 330 343 330 11 36 62 89 38 324 295 60 86 95 17 346 33 28 286 306 279 286 329 308 277 284 270 258 251 237 221 216 213 216 222 227 231 235
71 57 46 35 29 27 35 43 53 133 112 81 74 117 138 123 198 230 298 337 270 50 71 82 309 51 60 347 309 317 348 9 356 26 63 23 7 48 12 320 350 19 357 346 145 203 120 334 298 293 307 313 340 33 358 5 41 94 105 325 47 70 7 28 59 355 357 317 292 310 305 262 213 223 232 228 233 236 236 235 232 228 221 221 226 231 235 238
69 59 41 30 27 31 38 61 138 119 94 76 82 126 118 150 331 305 331 350 185 79 69 117 270 28 64 114 293 309 349 20 352 27 75 47 360 54 63 309 299 356 1 58 132 299 82 95 286 287 298 313 357 45 14 328 358 45 46 6 36 124 174 257 25 159 170 270 280 314 322 280 226 213 195 211 221 218 223 226 227 230 226 226 230 235 238 239
110 89 37 25 31 34 35 103 109 86 76 87 149 132 121 159 117 25 31 17 117 87 77 190 114 26 348 27 346 303 1 23 13 41 63 40 9 10 47 71 281 337 352 36 82 354 18 93 253 295 335 6 358 351 179 210 290 1 28 21 2 2 97 52 341 136 128 169 211 298 304 273 247 203 185 208 219 211 213 217 225 231 231 233 236 240 244 244
95 93 25 19 19 6 69 98 73 61 68 99 104 94 77 136 139 45 43 62 76 72 109 152 123 130 166 37 356 281 359 14 24 68 72 9 54 55 333 10 270 313 344 24 43 17 25 98 214 295 339 358 253 241 213 207 205 170 98 127 146 41 59 68 330 308 68 160 181 170 268 270 260 197 187 206 212 213 217 218 225 234 237 240 244 246 248 248
83 74 6 16 23 52 99 81 38 28 86 83 78 97 114 129 120 39 38 66 62 51 76 110 104 110 151 151 299 274 81 32 20 69 85 270 133 186 292 345 330 299 3 34 325 315 107 102 100 283 276 253 259 266 231 219 175 134 115 136 134 115 105 117 214 271 311 293 199 134 242 271 263 205 200 214 217 222 225 224 229 239 244 248 251 252 251 250
70 62 12 21 59 99 95 74 11 21 72 89 102 91 90 121 103 45 37 45 32 31 49 51 85 78 151 200 137 90 115 80 73 101 84 238 211 228 263 349 348 317 95 68 294 325 32 74 52 301 293 297 307 324 14 47 67 74 336 90 115 117 122 145 179 185 214 269 222 107 258 271 273 238 225 237 242 240 238 234 236 243 249 251 252 253 251 247
72 61 44 40 90 119 97 107 111 73 90 113 89 68 64 79 69 50 34 24 16 76 80 31 60 58 288 169 106 169 159 98 101 126 117 174 212 252 257 349 9 50 85 78 270 349 306 104 85 8 342 345 345 351 350 342 10 187 254 217 114 95 96 115 149 108 232 240 172 151 242 256 276 294 261 258 262 256 247 243 242 246 251 252 251 249 245 243
75 61 51 58 90 107 104 125 134 131 145 108 81 51 60 61 48 46 53 46 46 87 100 6 314 299 330 57 57 357 33 80 312 357 50 105 243 262 259 270 292 351 5 267 228 119 195 165 113 98 46 335 314 303 284 286 307 298 232 228 208 129 125 151 117 100 240 247 169 171 233 260 279 299 288 269 261 259 255 251 250 252 254 254 251 248 246 248
84 68 46 56 75 85 90 109 117 117 142 122 82 37 70 66 26 41 51 52 45 63 85 26 330 284 20 39 44 348 340 16 33 80 82 274 266 271 274 269 271 295 317 306 276 109 118 169 167 150 168 205 228 247 242 206 270 273 263 246 228 171 135 125 113 164 200 193 207 226 238 270 282 281 279 268 250 251 258 256 256 257 258 257 252 250 252 253
85 77 41 57 67 73 75 87 101 108 145 140 110 80 92 62 337 23 37 55 46 56 95 49 37 85 45 42 59 304 300 350 19 65 127 239 262 286 277 262 281 304 305 299 289 95 92 320 260 174 206 225 226 251 264 251 232 239 249 249 225 190 149 141 177 214 174 130 260 251 219 243 275 279 278 275 265 254 259 263 265 267 268 264 255 250 253 255
95 98 104 115 104 67 62 73 93 95 98 110 112 121 95 57 33 74 70 36 43 46 97 26 7 18 277 177 119 219 313 4 350 262 188 247 288 338 322 264 252 305 299 252 294 106 110 270 247 186 256 260 250 260 259 231 231 229 233 244 227 191 177 188 213 212 167 180 247 253 226 244 272 282 282 281 279 272 273 276 276 276 275 265 251 247 254 259
116 115 89 92 108 117 114 110 101 90 69 59 77 79 106 109 121 214 244 18 9 358 49 75 305 317 287 211 128 139 234 96 293 269 209 197 285 339 352 278 243 281 330 151 310 94 116 262 246 200 290 285 272 270 243 199 250 274 258 248 231 204 198 208 226 212 193 224 249 257 263 264 270 277 278 282 283 280 281 283 279 273 268 257 248 252 259 263
129 133 119 108 99 99 110 110 99 90 51 33 70 69 137 139 166 231 220 104 100 316 20 117 269 286 275 177 129 167 226 189 196 241 191 155 301 241 198 231 218 317 1 68 38 49 98 279 279 93 329 293 283 292 276 227 267 282 277 265 237 220 218 224 238 224 217 246 257 262 271 271 269 268 271 280 286 285 282 279 273 269 266 260 256 260 264 267
132 134 128 116 93 49 90 92 85 95 44 9 99 158 178 172 189 179 136 161 179 214 230 190 241 289 2 127 165 227 253 216 216 242 210 191 226 214 203 208 175 332 346 25 271 13 86 292 350 58 360 279 279 323 306 297 298 281 276 270 234 215 217 218 222 208 205 232 257 272 274 268 268 272 274 282 288 285 279 277 276 276 274 267 261 263 267 273
129 132 129 115 90 18 82 76 43 77 76 302 147 161 176 182 183 156 106 288 215 183 237 200 184 136 61 197 216 248 286 269 259 268 253 234 238 236 242 247 217 212 212 147 221 298 119 120 346 59 296 267 280 318 313 325 335 295 264 235 209 211 223 240 251 232 212 211 233 251 248 253 280 298 293 290 288 281 279 281 282 283 280 270 263 267 276 282
Height
1539 1539 1539 1539 1538 1538 1537 1537 1537 1537 1537 1537 1536 1536 1536 1535 1535 1535 1534 1534 1534 1534 1534 1533 1533 1533 1532 1532 1532 1531 1530 1530 1530 1530 1530 1530 1530 1529 1529 1528 1528 1527 1526 1526 1525 1525 1526 1526 1526 1526 1525 1526 1526 1526 1526 1527 1527 1528 1530 1534 1534 1535 1534 1529 1527 1527 1526 1525 1525 1526 1526 1527 1531 1533 1532 1534 1535 1536 1536 1536 1536 1536 1537 1538 1541 1545 1547 1550
1539 1539 1539 1539 1539 1538 1538 1538 1537 1537 1537 1536 1536 1536 1536 1535 1535 1535 1534 1534 1534 1534 1533 1533 1533 1532 1532 1532 1531 1531 1531 1530 1530 1530 1530 1530 1530 1529 1528 1527 1527 1527 1526 1526 1525 1525 1525 1525 1525 1525 1525 1525 1526 1526 1525 1526 1526 1527 1531 1534 1532 1530 1529 1526 1525 1524 1524 1524 1525 1526 1527 1527 1531 1533 1532 1535 1540 1538 1537 1540 1539 1538 1541 1543 1544 1547 1549 1551
1539 1539 1539 1539 1539 1539 1538 1538 1538 1537 1537 1537 1536 1536 1535 1535 1535 1534 1534 1534 1534 1533 1533 1533 1532 1532 1532 1531 1531 1531 1531 1530 1530 1531 1530 1530 1530 1529 1528 1527 1527 1526 1526 1525 1525 1525 1525 1525 1525 1525 1525 1525 1525 1525 1525 1525 1525 1525 1529 1531 1528 1526 1526 1524 1524 1523 1523 1523 1524 1527 1527 1528 1532 1532 1532 1536 1541 1540 1541 1543 1542 1541 1544 1545 1547 1549 1550 1552
1539 1539 1539 1539 1539 1539 1538 1538 1538 1537 1537 1537 1536 1536 1536 1535 1535 1534 1534 1533 1533 1533 1532 1532 1532 1532 1531 1531 1531 1531 1530 1530 1531 1531 1531 1530 1530 1529 1528 1527 1526 1526 1525 1525 1525 1524 1524 1524 1524 1524 1525 1525 1524 1525 1525 1524 1524 1524 1526 1527 1524 1524 1525 1523 1523 1523 1523 1523 1524 1527 1527 1530 1533 1532 1534 1536 1538 1543 1545 1545 1544 1543 1544 1546 1548 1550 1551 1552
1539 1539 1539 1539 1539 1539 1538 1538 1538 1537 1537 1537 1536 1536 1535 1535 1534 1534 1533 1533 1533 1532 1532 1532 1532 1531 1531 1531 1531 1530 1530 1531 1532 1531 1531 1530 1529 1528 1527 1526 1525 1525 1525 1524 1524 1524 1524 1524 1524 1524 1524 1524 1524 1524 1524 1523 1524 1524 1524 1522 1521 1523 1523 1522 1523 1523 1523 1523 1525 1527 1528 1532 1534 1535 1538 1537 1540 1546 1547 1547 1547 1546 1545 1547 1548 1550 1552 1553
1540 1539 1539 1539 1539 1539 1538 1538 1538 1537 1537 1536 1536 1536 1535 1534 1534 1533 1533 1532 1532 1532 1531 1531 1531 1531 1531 1530 1531 1530 1530 1532 1532 1531 1531 1530 1529 1528 1527 1526 1525 1525 1524 1524 1524 1523 1523 1523 1523 1523 1523 1523 1524 1523 1522 1523 1523 1524 1523 1521 1521 1522 1522 1522 1522 1523 1523 1523 1525 1528 1530 1533 1534 1540 1543 1540 1545 1548 1547 1548 1548 1547 1548 1548 1549 1550 1552 1553
1540 1540 1539 1539 1539 1539 1539 1538 1538 1537 1537 1536 1536 1535 1535 1534 1533 1533 1532 1532 1531 1531 1531 1531 1531 1531 1530 1530 1530 1530 1530 1532 1532 1531 1530 1529 1528 1527 1526 1525 1525 1524 1524 1523 1523 1523 1523 1523 1523 1523 1523 1523 1523 1523 1522 1522 1522 1523 1522 1521 1521 1521 1522 1522 1523 1523 1523 1523 1526 1528 1531 1534 1535 1541 1545 1545 1549 1550 1548 1549 1548 1548 1549 1549 1550 1551 1552 1553
1540 1540 1540 1539 1539 1539 1539 1538 1538 1537 1537 1536 1536 1535 1534 1534 1533 1533 1532 1532 1531 1531 1530 1530 1530 1530 1530 1530 1530 1530 1530 1531 1531 1530 1529 1528 1527 1526 1525 1524 1524 1523 1523 1523 1522 1523 1522 1522 1522 1522 1523 1523 1523 1523 1522 1522 1521 1522 1522 1521 1521 1521 1522 1522 1523 1523 1523 1525 1527 1529 1533 1537 1538 1540 1546 1551 1552 1550 1548 1549 1549 1549 1550 1551 1552 1553 1554 1554
1540 1540 1540 1540 1539 1539 1539 1538 1538 1537 1537 1536 1536 1535 1534 1534 1533 1532 1532 1531 1531 1530 1530 1530 1530 1530 1530 1530 1529 1530 1531 1532 1531 1530 1528 1527 1526 1525 1524 1523 1523 1523 1523 1522 1522 1522 1522 1522 1522 1522 1523 1523 1523 1523 1522 1523 1522 1522 1522 1521 1522 1522 1523 1522 1524 1523 1524 1526 1526 1530 1538 1541 1540 1541 1550 1556 1554 1552 1550 1549 1551 1550 1550 1552 1553 1555 1556 1556
1541 1540 1540 1540 1540 1539 1539 1539 1538 1538 1537 1536 1536 1535 1534 1534 1533 1532 1531 1531 1530 1530 1530 1529 1530 1530 1530 1530 1530 1531 1532 1532 1530 1529 1528 1527 1526 1524 1524 1522 1522 1522 1522 1522 1521 1522 1521 1522 1522 1522 1522 1522 1522 1522 1522 1523 1522 1522 1521 1521 1521 1522 1523 1522 1523 1523 1524 1527 1525 1529 1540 1542 1539 1542 1553 1559 1556 1553 1551 1551 1553 1552 1552 1555 1555 1557 1557 1558
1541 1541 1540 1540 1540 1540 1539 1539 1538 1538 1537 1537 1536 1535 1534 1533 1533 1532 1531 1530 1530 1530 1529 1529 1530 1529 1530 1530 1530 1532 1532 1531 1530 1529 1528 1526 1525 1524 1523 1522 1522 1521 1521 1521 1521 1521 1521 1521 1522 1521 1521 1521 1522 1521 1521 1521 1521 1521 1520 1520 1520 1521 1522 1522 1524 1523 1523 1527 1526 1527 1536 1542 1541 1545 1555 1557 1557 1554 1551 1553 1555 1554 1555 1557 1557 1558 1559 1559
1541 1541 1541 1540 1540 1540 1539 1539 1538 1538 1537 1537 1536 1535 1534 1533 1532 1531 1531 1530 1530 1529 1529 1529 1530 1530 1530 1530 1531 1532 1532 1531 1530 1529 1527 1526 1525 1523 1522 1521 1521 1521 1521 1521 1521 1521 1521 1521 1521 1521 1521 1521 1522 1521 1520 1520 1520 1520 1520 1520 1520 1520 1521 1522 1524 1522 1522 1526 1527 1524 1531 1545 1549 1552 1557 1557 1556 1554 1552 1555 1557 1557 1558 1558 1559 1560 1560 1562
1541 1541 1541 1540 1540 1539 1539 1539 1538 1538 1537 1536 1536 1535 1534 1533 1532 1531 1530 1530 1529 1529 1529 1529 1530 1530 1530 1531 1532 1532 1531 1530 1529 1528 1527 1525 1524 1523 1521 1521 1520 1520 1520 1520 1520 1520 1520 1520 1520 1521 1521 1521 1521 1521 1520 1520 1519 1519 1520 1521 1521 1522 1522 1522 1522 1522 1523 1525 1527 1524 1529 1551 1559 1556 1558 1557 1556 1554 1555 1558 1559 1560 1560 1560 1562 1561 1562 1564
1541 1541 1541 1540 1540 1539 1539 1538 1538 1538 1537 1536 1535 1534 1534 1533 1532 1531 1530 1529 1529 1529 1529 1529 1530 1530 1531 1532 1532 1532 1531 1530 1529 1528 1526 1524 1523 1522 1521 1520 1520 1520 1520 1520 1520 1520 1520 1520 1520 1520 1521 1521 1521 1521 1521 1521 1520 1520 1522 1523 1526 1527 1524 1523 1521 1521 1524 1526 1528 1525 1530 1552 1561 1558 1559 1558 1556 1555 1557 1561 1561 1562 1562 1563 1563 1563 1564 1565
1541 1541 1540 1540 1539 1539 1539 1538 1538 1537 1537 1536 1535 1534 1533 1533 1532 1531 1530 1529 1529 1529 1530 1530 1530 1531 1531 1532 1533 1532 1531 1530 1529 1528 1526 1523 1522 1521 1520 1520 1519 1520 1520 1519 1519 1520 1520 1520 1520 1521 1521 1521 1521 1521 1522 1522 1523 1524 1523 1526 1531 1530 1526 1525 1523 1522 1525 1527 1529 1526 1533 1553 1560 1558 1560 1558 1557 1556 1559 1563 1563 1564 1564 1564 1565 1565 1565 1566
1541 1540 1540 1540 1539 1539 1538 1538 1538 1537 1536 1536 1535 1534 1534 1533 1532 1531 1531 1530 1530 1530 1530 1530 1531 1531 1532 1533 1533 1532 1531 1530 1529 1528 1526 1523 1522 1521 1520 1520 1520 1520 1520 1520 1520 1520 1520 1520 1520 1521 1521 1522 1523 1523 1524 1524 1525 1528 1528 1527 1529 1529 1527 1526 1523 1524 1525 1525 1528 1528 1536 1553 1558 1558 1560 1559 1558 1557 1560 1564 1564 1565 1566 1566 1566 1566 1567 1567
1541 1540 1540 1539 1539 1539 1538 1537 1537 1536 1536 1535 1535 1534 1534 1533 1532 1532 1532 1531 1531 1531 1531 1532 1532 1531 1532 1533 1533 1532 1531 1530 1529 1528 1525 1523 1522 1521 1521 1520 1520 1520 1520 1520 1520 1520 1520 1521 1521 1522 1523 1525 1527 1524 1525 1529 1528 1529 1530 1529 1529 1530 1530 1528 1525 1526 1527 1526 1530 1533 1542 1553 1556 1558 1560 1560 1559 1558 1561 1564 1565 1566 1566 1567 1567 1567 1567 1567
1541 1540 1540 1539 1538 1538 1538 1537 1536 1536 1535 1535 1535 1534 1534 1534 1533 1532 1532 1532 1532 1531 1532 1532 1531 1533 1534 1534 1534 1534 1533 1532 1530 1527 1525 1523 1522 1522 1521 1521 1520 1521 1520 1520 1520 1521 1521 1521 1522 1523 1525 1528 1530 1529 1530 1534 1533 1532 1533 1532 1532 1532 1532 1530 1527 1528 1530 1531 1536 1540 1547 1556 1557 1559 1561 1561 1561 1560 1563 1565 1565 1567 1567 1567 1567 1567 1568 1568
1540 1540 1539 1538 1538 1537 1537 1536 1535 1535 1535 1534 1534 1534 1534 1534 1534 1533 1533 1533 1533 1533 1535 1535 1534 1537 1538 1536 1536 1535 1534 1533 1530 1527 1525 1523 1522 1522 1522 1521 1521 1521 1520 1521 1521 1522 1522 1523 1525 1528 1532 1533 1534 1536 1535 1536 1535 1534 1535 1535 1535 1535 1533 1530 1530 1532 1532 1537 1544 1545 1551 1558 1560 1561 1562 1563 1563 1562 1564 1566 1566 1567 1568 1568 1568 1568 1568 1568
1539 1539 1538 1538 1537 1537 1536 1535 1535 1534 1534 1533 1533 1533 1534 1534 1535 1536 1536 1534 1535 1537 1539 1539 1538 1539 1539 1538 1537 1536 1534 1533 1530 1528 1525 1523 1523 1523 1522 1521 1522 1521 1522 1524 1524 1524 1524 1528 1534 1536 1537 1537 1537 1538 1536 1536 1536 1535 1536 1536 1536 1537 1533 1529 1533 1535 1532 1538 1551 1553 1554 1560 1561 1562 1563 1563 1564 1564 1565 1566 1567 1568 1568 1568 1568 1568 1569 1569
1539 1538 1538 1537 1536 1536 1535 1534 1534 1533 1533 1533 1532 1532 1533 1533 1534 1536 1536 1537 1538 1539 1540 1540 1540 1539 1539 1539 1537 1536 1535 1533 1530 1528 1526 1525 1523 1523 1523 1523 1523 1524 1525 1526 1525 1525 1526 1532 1539 1538 1538 1539 1539 1538 1536 1535 1536 1535 1535 1534 1535 1536 1533 1530 1534 1537 1534 1539 1555 1557 1557 1562 1563 1563 1564 1564 1565 1565 1565 1565 1566 1568 1568 1568 1569 1568 1569 1569
1538 1538 1537 1536 1536 1535 1534 1534 1533 1533 1532 1532 1532 1532 1532 1532 1533 1534 1535 1537 1540 1540 1540 1541 1540 1540 1539 1538 1538 1537 1535 1532 1529 1528 1527 1526 1524 1524 1526 1526 1526 1529 1528 1526 1526 1528 1531 1537 1540 1538 1538 1538 1539 1539 1536 1535 1536 1535 1535 1533 1534 1535 1534 1532 1533 1539 1538 1540 1555 1559 1559 1565 1566 1564 1565 1565 1565 1565 1565 1565 1565 1566 1567 1568 1568 1568 1568 1568
1538 1537 1536 1535 1535 1534 1533 1533 1533 1532 1532 1532 1532 1532 1532 1532 1533 1534 1534 1536 1540 1541 1541 1541 1540 1540 1539 1539 1538 1537 1536 1534 1533 1532 1529 1528 1526 1526 1527 1528 1530 1532 1531 1530 1530 1533 1537 1540 1540 1538 1537 1536 1537 1539 1536 1535 1536 1537 1537 1534 1534 1536 1535 1532 1534 1541 1542 1542 1551 1558 1562 1566 1566 1566 1567 1565 1565 1566 1566 1566 1566 1566 1566 1566 1567 1567 1567 1568
1537 1536 1535 1534 1534 1533 1532 1532 1532 1532 1531 1531 1532 1532 1532 1532 1533 1534 1534 1536 1540 1542 1541 1541 1541 1540 1540 1539 1539 1538 1537 1538 1538 1536 1533 1531 1529 1529 1530 1531 1532 1533 1536 1536 1534 1537 1542 1541 1540 1539 1538 1537 1537 1538 1539 1537 1537 1538 1538 1536 1535 1537 1536 1535 1537 1541 1545 1549 1552 1554 1559 1565 1566 1566 1567 1567 1566 1566 1566 1566 1567 1566 1566 1567 1567 1567 1567 1568
1537 1535 1535 1534 1533 1532 1532 1532 1532 1531 1531 1531 1531 1531 1532 1532 1533 1533 1533 1536 1541 1542 1542 1542 1541 1541 1541 1540 1539 1539 1539 1539 1540 1539 1536 1533 1531 1531 1532 1532 1533 1535 1538 1539 1536 1539 1543 1542 1540 1539 1539 1539 1538 1539 1542 1541 1539 1537 1537 1537 1537 1538 1538 1538 1540 1539 1541 1548 1551 1548 1547 1556 1568 1568 1566 1568 1567 1567 1567 1566 1566 1566 1566 1567 1566 1567 1567 1567
1536 1535 1534 1533 1533 1532 1531 1531 1531 1531 1530 1530 1531 1531 1531 1532 1532 1533 1534 1539 1544 1545 1543 1542 1542 1542 1542 1541 1539 1538 1540 1541 1542 1541 1537 1535 1534 1532 1534 1535 1535 1536 1538 1538 1538 1540 1544 1543 1542 1541 1541 1540 1540 1541 1543 1544 1542 1538 1538 1540 1540 1539 1539 1538 1540 1539 1537 1539 1544 1545 1540 1546 1565 1569 1565 1567 1567 1567 1567 1565 1566 1565 1565 1566 1565 1565 1566 1566
1535 1534 1534 1533 1532 1531 1531 1530 1530 1530 1530 1530 1530 1530 1531 1531 1532 1533 1534 1542 1549 1548 1545 1544 1544 1545 1544 1543 1541 1540 1544 1544 1542 1542 1539 1536 1536 1533 1535 1539 1538 1538 1538 1537 1539 1543 1545 1543 1543 1543 1541 1540 1541 1542 1543 1544 1543 1539 1539 1540 1538 1537 1538 1537 1539 1539 1538 1537 1540 1546 1543 1542 1554 1564 1564 1566 1567 1567 1567 1566 1565 1564 1564 1564 1564 1564 1564 1564
1535 1534 1533 1532 1532 1531 1530 1530 1530 1529 1529 1529 1529 1529 1530 1530 1532 1533 1536 1547 1553 1549 1548 1547 1546 1546 1546 1545 1543 1542 1546 1546 1543 1545 1542 1538 1537 1535 1536 1541 1541 1541 1540 1537 1541 1546 1546 1545 1545 1544 1543 1542 1543 1544 1544 1544 1543 1539 1538 1539 1537 1536 1537 1539 1540 1539 1539 1539 1538 1544 1547 1544 1550 1562 1566 1566 1567 1566 1565 1564 1564 1563 1563 1562 1562 1562 1562 1562
1535 1534 1532 1532 1531 1530 1530 1529 1529 1529 1529 1529 1528 1529 1530 1530 1533 1534 1538 1550 1555 1550 1550 1549 1547 1548 1547 1546 1545 1545 1546 1545 1546 1548 1544 1540 1539 1537 1539 1543 1542 1543 1541 1540 1544 1548 1546 1546 1547 1545 1545 1545 1544 1544 1544 1543 1542 1540 1538 1537 1536 1538 1539 1538 1539 1539 1538 1538 1538 1540 1545 1544 1548 1561 1568 1567 1566 1563 1560 1561 1561 1561 1561 1560 1560 1560 1560 1561
1534 1533 1532 1531 1530 1530 1529 1529 1528 1528 1528 1528 1528 1529 1530 1531 1535 1539 1545 1553 1554 1552 1551 1549 1549 1551 1549 1547 1547 1547 1547 1547 1548 1548 1545 1544 1542 1540 1540 1542 1542 1543 1545 1544 1545 1548 1547 1546 1547 1546 1547 1547 1545 1545 1544 1544 1543 1539 1538 1535 1532 1536 1539 1538 1540 1540 1536 1537 1539 1538 1540 1541 1542 1552 1563 1563 1560 1557 1556 1558 1558 1558 1559 1558 1558 1558 1558 1559
1534 1533 1532 1531 1530 1529 1529 1528 1528 1528 1528 1528 1529 1529 1530 1533 1538 1544 1552 1556 1555 1553 1553 1552 1553 1553 1552 1553 1552 1550 1549 1549 1549 1549 1548 1549 1547 1544 1543 1546 1546 1543 1545 1548 1548 1549 1549 1547 1547 1548 1548 1547 1545 1544 1543 1543 1543 1540 1540 1538 1533 1536 1537 1535 1537 1538 1538 1540 1540 1538 1537 1537 1538 1546 1555 1556 1554 1555 1554 1554 1555 1555 1555 1555 1556 1556 1556 1556
1534 1533 1532 1530 1530 1529 1528 1528 1527 1527 1527 1528 1529 1529 1530 1535 1544 1554 1557 1556 1556 1558 1558 1557 1557 1555 1556 1557 1556 1555 1553 1552 1552 1552 1554 1555 1555 1555 1556 1559 1559 1549 1546 1554 1554 1550 1549 1549 1550 1549 1548 1547 1545 1544 1543 1542 1542 1541 1542 1542 1542 1547 1549 1545 1544 1547 1548 1541 1535 1538 1539 1537 1540 1547 1552 1553 1553 1553 1552 1551 1551 1551 1551 1552 1553 1553 1553 1553
1534 1533 1531 1530 1529 1528 1527 1527 1526 1527 1527 1528 1529 1531 1532 1537 1551 1564 1563 1558 1559 1561 1561 1560 1559 1558 1558 1556 1557 1558 1556 1555 1555 1555 1557 1558 1559 1562 1563 1565 1565 1557 1553 1559 1560 1554 1549 1550 1551 1548 1548 1548 1547 1549 1548 1546 1545 1544 1545 1546 1549 1557 1561 1561 1560 1560 1555 1542 1535 1541 1542 1540 1543 1548 1552 1553 1552 1551 1550 1549 1548 1548 1549 1549 1549 1550 1550 1551
1534 1532 1532 1531 1529 1528 1527 1527 1526 1526 1527 1527 1529 1530 1533 1544 1559 1567 1564 1563 1564 1563 1562 1562 1560 1558 1558 1558 1560 1560 1557 1558 1559 1558 1558 1559 1561 1564 1566 1565 1565 1563 1561 1562 1564 1563 1557 1553 1553 1551 1551 1550 1549 1551 1552 1551 1549 1548 1549 1549 1551 1557 1562 1563 1563 1560 1556 1551 1543 1539 1539 1542 1543 1545 1551 1552 1550 1550 1548 1546 1547 1546 1547 1547 1548 1549 1548 1548
1534 1533 1532 1530 1530 1529 1528 1527 1526 1526 1527 1527 1530 1535 1541 1555 1566 1566 1565 1567 1567 1564 1563 1564 1561 1558 1558 1561 1562 1561 1559 1558 1559 1561 1562 1564 1567 1569 1570 1569 1567 1567 1565 1561 1564 1569 1564 1557 1555 1553 1553 1552 1551 1551 1552 1551 1550 1550 1551 1551 1552 1556 1558 1559 1560 1559 1559 1558 1551 1542 1543 1550 1549 1547 1551 1551 1548 1549 1547 1545 1546 1545 1546 1547 1546 1546 1546 1545
1534 1533 1532 1530 1530 1529 1528 1528 1526 1526 1528 1526 1531 1546 1558 1565 1567 1567 1567 1567 1567 1567 1565 1562 1561 1561 1561 1562 1562 1562 1561 1559 1559 1561 1564 1569 1572 1572 1572 1571 1570 1570 1567 1565 1568 1569 1564 1557 1554 1554 1553 1553 1553 1551 1551 1551 1550 1550 1552 1552 1554 1556 1555 1555 1557 1561 1563 1559 1553 1549 1546 1549 1549 1546 1548 1550 1548 1548 1547 1545 1545 1544 1545 1545 1544 1544 1543 1543
1534 1533 1532 1531 1530 1529 1529 1528 1526 1527 1527 1526 1536 1557 1568 1569 1568 1569 1569 1567 1568 1569 1565 1562 1562 1565 1566 1564 1563 1563 1562 1560 1560 1561 1565 1570 1571 1572 1573 1572 1571 1571 1570 1569 1570 1570 1569 1561 1556 1556 1554 1552 1553 1552 1551 1552 1551 1552 1554 1553 1554 1554 1554 1558 1560 1561 1564 1561 1554 1550 1548 1547 1545 1542 1546 1551 1548 1546 1546 1545 1545 1545 1544 1543 1542 1541 1541 1540
1535 1534 1533 1532 1531 1530 1529 1528 1529 1528 1526 1532 1549 1564 1569 1569 1568 1569 1568 1567 1568 1568 1565 1565 1565 1567 1569 1568 1566 1566 1564 1562 1562 1564 1567 1570 1571 1573 1575 1573 1571 1571 1571 1570 1568 1570 1572 1563 1555 1557 1556 1553 1553 1552 1552 1553 1551 1552 1555 1554 1554 1554 1555 1560 1563 1562 1565 1567 1559 1553 1554 1552 1544 1540 1543 1545 1544 1544 1544 1545 1544 1543 1541 1540 1539 1538 1538 1538
1535 1534 1533 1534 1533 1532 1531 1530 1531 1528 1526 1541 1560 1565 1566 1569 1569 1568 1568 1568 1568 1567 1567 1569 1569 1568 1569 1570 1569 1569 1568 1566 1567 1567 1568 1571 1572 1573 1575 1574 1572 1570 1570 1570 1569 1570 1572 1566 1557 1555 1556 1555 1553 1554 1556 1557 1555 1553 1554 1556 1556 1558 1560 1563 1565 1565 1566 1569 1565 1558 1552 1543 1538 1538 1538 1537 1540 1541 1542 1542 1542 1539 1538 1537 1536 1535 1536 1535
1534 1534 1535 1536 1534 1534 1534 1531 1530 1530 1536 1552 1563 1564 1566 1569 1568 1568 1568 1567 1567 1567 1567 1570 1571 1569 1569 1571 1572 1571 1570 1569 1569 1568 1570 1573 1574 1573 1575 1575 1573 1572 1570 1570 1570 1571 1571 1569 1563 1556 1555 1556 1556 1558 1560 1560 1559 1556 1556 1559 1560 1560 1563 1564 1565 1567 1567 1566 1568 1566 1554 1537 1533 1537 1535 1534 1537 1537 1537 1538 1537 1535 1534 1534 1533 1533 1533 1532
1534 1535 1536 1536 1535 1536 1534 1533 1537 1542 1550 1559 1563 1565 1567 1567 1567 1569 1568 1567 1568 1567 1568 1570 1570 1570 1570 1571 1572 1572 1571 1570 1570 1571 1572 1574 1574 1573 1574 1575 1574 1574 1571 1569 1571 1572 1571 1571 1569 1563 1559 1558 1558 1560 1561 1560 1561 1559 1558 1561 1563 1563 1564 1565 1566 1569 1570 1566 1565 1568 1559 1538 1530 1533 1533 1532 1533 1533 1533 1533 1532 1531 1531 1530 1530 1530 1530 1530
1534 1536 1538 1536 1536 1536 1534 1539 1549 1552 1556 1561 1563 1565 1567 1566 1568 1569 1567 1568 1568 1567 1568 1569 1570 1571 1571 1571 1571 1572 1571 1571 1572 1573 1573 1574 1575 1574 1574 1574 1574 1574 1572 1571 1573 1573 1573 1574 1572 1566 1561 1560 1560 1561 1561 1560 1560 1560 1560 1562 1565 1565 1565 1566 1567 1567 1571 1570 1568 1574 1566 1540 1529 1532 1531 1530 1531 1530 1530 1530 1529 1528 1527 1527 1528 1527 1527 1527
1536 1538 1539 1537 1537 1537 1536 1546 1557 1558 1560 1564 1565 1565 1567 1567 1568 1568 1568 1568 1568 1568 1569 1569 1570 1571 1570 1571 1572 1571 1571 1571 1572 1573 1574 1575 1575 1574 1574 1574 1573 1573 1573 1573 1573 1573 1573 1573 1571 1566 1561 1559 1559 1560 1561 1561 1560 1560 1561 1563 1564 1564 1564 1566 1568 1569 1570 1568 1565 1571 1564 1537 1526 1532 1531 1529 1530 1529 1528 1528 1527 1526 1525 1525 1525 1524 1524 1524
1538 1539 1539 1538 1538 1537 1538 1548 1558 1562 1564 1565 1565 1566 1567 1567 1568 1568 1569 1569 1568 1569 1569 1570 1571 1570 1570 1571 1571 1571 1571 1571 1572 1574 1574 1575 1574 1573 1573 1573 1573 1573 1572 1572 1573 1573 1572 1572 1573 1570 1566 1562 1559 1560 1560 1559 1560 1559 1561 1565 1565 1565 1567 1568 1571 1573 1570 1564 1561 1563 1553 1532 1526 1532 1530 1529 1530 1528 1527 1527 1525 1524 1523 1522 1522 1521 1521 1521
1539 1540 1541 1540 1539 1539 1542 1548 1553 1559 1563 1564 1565 1568 1568 1568 1569 1569 1569 1570 1570 1570 1570 1570 1571 1570 1571 1571 1571 1572 1572 1570 1571 1573 1574 1574 1574 1573 1573 1573 1573 1573 1572 1572 1573 1573 1572 1573 1573 1570 1570 1569 1566 1564 1561 1559 1561 1561 1562 1565 1564 1565 1567 1565 1569 1572 1566 1563 1564 1559 1544 1530 1527 1531 1529 1529 1529 1527 1525 1524 1523 1522 1521 1520 1520 1519 1519 1519
1539 1542 1545 1545 1543 1543 1548 1552 1553 1556 1561 1562 1565 1568 1569 1569 1570 1570 1570 1570 1570 1570 1570 1571 1571 1571 1572 1571 1571 1572 1572 1572 1572 1572 1573 1574 1573 1572 1573 1572 1572 1572 1572 1573 1572 1573 1573 1573 1572 1569 1568 1567 1564 1561 1560 1561 1562 1560 1560 1562 1562 1565 1567 1565 1568 1567 1561 1562 1561 1549 1540 1534 1529 1528 1528 1527 1527 1526 1523 1522 1521 1519 1518 1517 1517 1516 1516 1516
1540 1544 1548 1548 1549 1550 1552 1555 1556 1556 1559 1560 1563 1568 1569 1570 1571 1570 1570 1570 1570 1571 1571 1571 1571 1571 1572 1572 1572 1572 1572 1574 1573 1571 1574 1575 1573 1573 1572 1571 1572 1572 1572 1572 1572 1573 1572 1568 1570 1571 1566 1564 1563 1560 1559 1562 1563 1559 1557 1557 1558 1562 1566 1564 1561 1557 1556 1560 1552 1539 1540 1539 1528 1524 1525 1524 1523 1523 1521 1519 1517 1516 1515 1514 1513 1513 1513 1512
1542 1546 1549 1548 1550 1554 1556 1557 1557 1558 1559 1561 1564 1568 1569 1570 1571 1570 1570 1571 1571 1571 1571 1571 1572 1572 1573 1573 1572 1572 1572 1572 1572 1573 1575 1575 1574 1573 1571 1571 1572 1571 1571 1572 1571 1573 1571 1567 1570 1572 1565 1562 1563 1560 1559 1562 1561 1557 1554 1552 1553 1559 1562 1557 1553 1553 1554 1551 1540 1533 1537 1536 1526 1522 1522 1521 1521 1520 1517 1516 1514 1513 1512 1511 1510 1510 1509 1509
1543 1546 1549 1549 1551 1555 1558 1558 1558 1558 1560 1562 1565 1568 1569 1570 1570 1571 1572 1571 1571 1572 1571 1570 1571 1572 1573 1573 1572 1572 1572 1570 1569 1572 1574 1574 1574 1574 1571 1570 1570 1571 1572 1571 1571 1573 1571 1567 1571 1573 1566 1560 1558 1556 1558 1559 1556 1553 1551 1550 1549 1552 1553 1550 1548 1549 1549 1544 1537 1535 1537 1532 1524 1520 1520 1518 1518 1517 1514 1513 1511 1510 1509 1508 1508 1507 1506 1505
1542 1544 1547 1549 1552 1557 1558 1559 1559 1559 1561 1563 1564 1568 1570 1570 1570 1571 1572 1571 1570 1571 1571 1570 1571 1572 1572 1573 1572 1571 1571 1570 1569 1571 1573 1573 1574 1574 1572 1570 1569 1571 1571 1570 1572 1572 1569 1568 1572 1573 1567 1558 1551 1551 1553 1554 1554 1551 1547 1547 1548 1547 1548 1550 1548 1547 1547 1543 1537 1537 1538 1531 1521 1518 1518 1516 1515 1514 1512 1510 1509 1508 1507 1506 1505 1503 1502 1502
1542 1544 1545 1546 1552 1559 1559 1559 1560 1560 1562 1564 1565 1567 1570 1570 1570 1571 1571 1571 1571 1571 1571 1571 1571 1572 1572 1572 1571 1570 1570 1570 1569 1570 1571 1571 1571 1571 1571 1570 1570 1571 1570 1571 1572 1571 1569 1570 1571 1572 1567 1556 1550 1551 1550 1551 1554 1550 1543 1541 1543 1543 1543 1543 1542 1541 1539 1536 1534 1536 1535 1525 1516 1515 1516 1514 1513 1512 1510 1508 1506 1504 1504 1503 1501 1500 1499 1499
1543 1545 1545 1545 1551 1560 1560 1560 1561 1560 1562 1565 1566 1567 1568 1568 1570 1570 1569 1571 1571 1570 1571 1571 1571 1571 1571 1571 1570 1569 1569 1569 1569 1569 1569 1569 1569 1569 1569 1569 1570 1570 1570 1571 1572 1571 1572 1569 1567 1571 1567 1555 1550 1552 1554 1554 1548 1536 1530 1530 1531 1535 1536 1535 1535 1534 1532 1531 1531 1529 1523 1515 1512 1514 1514 1511 1510 1509 1507 1505 1503 1501 1500 1499 1498 1497 1496 1495